Livermore, CA

7:43 PM PST on February 21, 2018 (GMT -0800)
Livermore Municipal

Weather History for KLVK - June, 2012

Change the Weather History Date:

Monday, June 25, 2012

  Actual Average Record
Temperature  
Mean Temperature 63 °F 70 °F  
Max Temperature 74 °F 84 °F 107 °F (1957)
Min Temperature 52 °F 56 °F 42 °F (1975)
Degree Days  
Heating Degree Days 2 0  
Month to date heating degree days 37 31  
Since 1 June heating degree days 37 31  
Since 1 July heating degree days 2599 2779  
Cooling Degree Days 0 5  
Month to date cooling degree days 120 81  
Year to date cooling degree days 194 134  
Since 1 June cooling degree days 120 81  
Growing Degree Days 12 (Base 50)    
Moisture  
Dew Point 46 °F    
Average Humidity 56    
Maximum Humidity 77    
Minimum Humidity 34    
Precipitation  
Precipitation 0.00 in 0.00 in 0.01 in (2013)
Month to date precipitation 0.07 0.04  
Year to date precipitation 7.06 9.90  
Since 1 July precipitation 8.97  
Sea Level Pressure  
Sea Level Pressure 30.05 in    
Wind  
Wind Speed 11 mph (WSW)    
Max Wind Speed 22 mph    
Max Gust Speed 30 mph    
Visibility 10 miles    
Events      
T = Trace of Precipitation, MM = Missing Value Source: NWS Daily Summary

Daily Weather History Graph

Daily Weather History Graph

Search for Another Location

Airport or City:

Trip Planner

Search our weather history database for the weather conditions in past years. The results will help you decide how hot, cold, wet, or windy it might be!

Date:

Astronomy

Jun. 25, 2012 Rise Set
Actual Time 5:47 AM PDT 8:32 PM PDT
Civil Twilight 5:15 AM PDT 9:04 PM PDT
Nautical Twilight 4:36 AM PDT 9:43 PM PDT
Astronomical Twilight 3:52 AM PDT 10:27 PM PDT
Moon 11:55 AM PDT (6/25) No Moon Set
Length of Visible Light 15h 48m
Length of Day
14h 45m
Waxing Crescent, 35% of the Moon is Illuminated
Jun 25
Waxing Crescent
Jun 26
First Quarter
Jul 3
Full
Jul 10
Last Quarter
Jul 18
New

Hourly Weather History & Observations

Time (PDT) Temp. Dew Point Humidity Pressure Visibility Wind Dir Wind Speed Gust Speed Precip Events Conditions
12:00 AM 55.4 °F 46.4 °F 72% 30.04 in 10.0 mi SW 4.6 mph - N/A   Mostly Cloudy
12:53 AM 55.9 °F 46.9 °F 72% 30.04 in 10.0 mi SW 9.2 mph - N/A   Mostly Cloudy
1:15 AM 55.4 °F 46.4 °F 72% 30.05 in 10.0 mi WSW 8.1 mph - N/A   Scattered Clouds
1:53 AM 55.0 °F 46.0 °F 72% 30.04 in 10.0 mi SW 9.2 mph - N/A   Partly Cloudy
2:53 AM 54.0 °F 46.9 °F 77% 30.05 in 10.0 mi WSW 6.9 mph - N/A   Partly Cloudy
3:53 AM 53.1 °F 46.0 °F 77% 30.04 in 10.0 mi SSW 5.8 mph - N/A   Clear
4:53 AM 54.0 °F 46.9 °F 77% 30.05 in 10.0 mi SSW 5.8 mph - N/A   Clear
5:53 AM 53.1 °F 46.9 °F 80% 30.07 in 10.0 mi SW 5.8 mph - N/A   Clear
6:53 AM 54.0 °F 46.9 °F 77% 30.08 in 10.0 mi Calm Calm - N/A   Scattered Clouds
7:53 AM 57.0 °F 46.9 °F 69% 30.08 in 10.0 mi South 3.5 mph - N/A   Mostly Cloudy
8:49 AM 59.0 °F 46.4 °F 63% 30.08 in 10.0 mi West 4.6 mph - N/A   Partly Cloudy
8:53 AM 59.0 °F 46.9 °F 64% 30.09 in 10.0 mi SSW 4.6 mph - N/A   Partly Cloudy
9:53 AM 63.0 °F 46.0 °F 54% 30.07 in 10.0 mi West 8.1 mph - N/A   Scattered Clouds
10:53 AM 66.0 °F 45.0 °F 47% 30.07 in 10.0 mi West 11.5 mph - N/A   Clear
11:53 AM 68.0 °F 45.0 °F 43% 30.06 in 10.0 mi West 8.1 mph 18.4 mph N/A   Partly Cloudy
12:53 PM 70.0 °F 42.1 °F 36% 30.06 in 10.0 mi West 12.7 mph 21.9 mph N/A   Partly Cloudy
1:53 PM 71.1 °F 43.0 °F 36% 30.04 in 10.0 mi WNW 15.0 mph 20.7 mph N/A   Clear
2:53 PM 72.0 °F 42.1 °F 34% 30.02 in 10.0 mi West 15.0 mph 24.2 mph N/A   Clear
3:53 PM 71.1 °F 41.0 °F 34% 30.01 in 10.0 mi West 19.6 mph - N/A   Clear
4:53 PM 70.0 °F 44.1 °F 39% 30.02 in 10.0 mi West 18.4 mph 25.3 mph N/A   Clear
5:53 PM 66.9 °F 46.9 °F 49% 30.02 in 10.0 mi West 18.4 mph - N/A   Clear
6:53 PM 64.9 °F 48.0 °F 54% 30.02 in 10.0 mi West 16.1 mph - N/A   Clear
7:53 PM 62.1 °F 48.0 °F 60% 30.03 in 10.0 mi West 13.8 mph - N/A   Clear
8:53 PM 60.1 °F 46.9 °F 62% 30.03 in 10.0 mi West 16.1 mph - N/A   Clear
9:53 PM 57.9 °F 48.9 °F 72% 30.05 in 10.0 mi West 12.7 mph - N/A   Clear
10:53 PM 57.9 °F 50.0 °F 75% 30.06 in 10.0 mi West 10.4 mph - N/A   Scattered Clouds
11:01 PM 59.0 °F 50.0 °F 72% 30.06 in 10.0 mi West 8.1 mph - N/A   Mostly Cloudy
11:53 PM 59.0 °F 50.0 °F 72% 30.05 in 10.0 mi West 9.2 mph - N/A   Overcast